Volver al catálogo

CZ-6A DEB

ActivoPO
NORAD 60760·DEBRIS·🇨🇳 China

Lanzado Aug 6, 2024 desde Taiyuan Satellite Launch Center

Loading…

Próximos Pases (próximas 24 horas)

TLE

ActualizadoSource: Space-Track

Época: Sep 14, 2026, 11:06 UTC

1 60760U 24140EK  26257.46253512  .00001071  00000-0  15026-3 0  9996
2 60760  89.0811 266.2318 0165010 269.2217  89.0091 14.67749030110334

Sigue CZ-6A DEB en tiempo real con AllMySat

Download on the App Store